(224315) = 2001 YW43 = 2005 UH28

Discovered at Kitt Peak on 2005-10-23 by Spacewatch.

Orbit

Orbit type: Main Belt

Note: WebGL enabled browser required.

epoch2024-03-31.0
epoch JD2460400.5
perihelion date2022-11-02.13007
perihelion JD2459885.63007
argument of perihelion (°)328.63220
ascending node (°)35.61991
inclination (°)2.38022
eccentricity0.0779284
perihelion distance (AU)2.4547736
Tisserand w.r.t. Jupiter3.4
ΔV w.r.t. Earth (km/sec)9.8
semimajor axis (AU)2.6622374
mean anomaly (°)116.82376
mean daily motion (°/day)0.22689960
aphelion distance (AU)2.870
period (years)4.34
P-vector [x]0.99698589
P-vector [y]0.07696105
P-vector [z]0.00980435
Q-vector [x]-0.07371621
Q-vector [y]0.90030172
Q-vector [z]0.42897871
absolute magnitude16.63
phase slope0.15
uncertainty0
referenceMPEC 2024-C163
observations used461
oppositions15
arc length (days)8092
first opposition used2001
last opposition used2024
residual rms (arc-secs)0.70
perturbers coarse indicatorM-v
perturbers precise indicator003Ek
first observation date used2001-12-18.0
last observation date used2024-02-13.0
computer nameMPCLINUX
JD of orbit computation2456523.311368
perihelion JD uncertainty (days)1.5251E-04
argument of perihelion uncertainty (°)1.2236E-04
ascending node uncertainty (°)1.1762E-04
inclination uncertainty (°)5.6742E-06
eccentricity uncertainty 7.3802E-08
perihelion distance uncertainty (AU)2.1495E-07
Minimum Orbit Intersection Distances (in AU)
for orbit epoch: 2460200.5, reference: E2024-CG3
Mercury2.08432
Venus1.72921
Earth1.45227
Mars1.03504
Jupiter2.48565
Saturn6.37626
Uranus15.5859
Neptune27.3557

Observations

463 total observations over interval: 2001 12 18.30077 – 2024 02 13.266565
These data are available for download (format description).

Date (UT) J2000 RA J2000 Dec Magn Location Ref
2001 12 18.30077 05 29 18.33 +26 06 51.4 19.8   704 – Lincoln Laboratory ETS, New Mexico MPS 45477
2001 12 18.31600 05 29 17.26 +26 06 51.5 20.2   704 – Lincoln Laboratory ETS, New Mexico MPS 45477
2001 12 18.33122 05 29 16.34 +26 06 51.0 19.8   704 – Lincoln Laboratory ETS, New Mexico MPS 45477
2001 12 18.34645 05 29 15.33 +26 06 50.6 19.7   704 – Lincoln Laboratory ETS, New Mexico MPS 45477
2001 12 18.36169 05 29 14.35 +26 06 50.4 19.8   704 – Lincoln Laboratory ETS, New Mexico MPS 45477
2001 12 19.30144 05 28 15.23 +26 06 34.4 19.8   704 – Lincoln Laboratory ETS, New Mexico MPS 45477
2001 12 19.31673 05 28 14.17 +26 06 33.5 20.6   704 – Lincoln Laboratory ETS, New Mexico MPS 45477
2001 12 19.33187 05 28 13.30 +26 06 34.1 19.7   704 – Lincoln Laboratory ETS, New Mexico MPS 45477
2001 12 19.36277 05 28 11.30 +26 06 32.9 19.6   704 – Lincoln Laboratory ETS, New Mexico MPS 45477
2003 04 05.25069 11 52 56.65 +02 52 07.7 21.1 V 691 – Steward Observatory, Kitt Peak-Spacewatch MPS 150850
2003 04 05.28278 11 52 55.14 +02 52 15.6 21.3 V 691 – Steward Observatory, Kitt Peak-Spacewatch MPS 150850
2003 04 05.31044 11 52 53.79 +02 52 22.3 21.4 V 691 – Steward Observatory, Kitt Peak-Spacewatch MPS 150850
2005 10 01.39197 03 05 17.08 +17 15 26.0 20.3 V G96 – Mt. Lemmon Survey MPS 150850
2005 10 01.39876 03 05 16.94 +17 15 25.6 20.4 V G96 – Mt. Lemmon Survey MPS 150850
2005 10 01.40552 03 05 16.76 +17 15 25.6 20.2 V G96 – Mt. Lemmon Survey MPS 150850
2005 10 01.41227 03 05 16.62 +17 15 25.2 20.2 V G96 – Mt. Lemmon Survey MPS 150850
2005 10 23.40215 02 51 02.95 +16 38 51.7 20.0 V 703 – Catalina Sky Survey MPS 150850
2005 10 23.41178 02 51 02.66 +16 38 50.7 19.1 V 703 – Catalina Sky Survey MPS 150850
2005 10 23.42145 02 51 02.12 +16 38 47.7 20.0 V 703 – Catalina Sky Survey MPS 150850
2005 10 23.43119 02 51 01.65 +16 38 48.4 20.7 V 703 – Catalina Sky Survey MPS 150850
2005 10 23.43287 02 51 01.54 +16 38 46.7 20.2 V 291 – LPL/Spacewatch II MPS 147817
2005 10 23.44021 02 51 01.15 +16 38 45.6 20.2 V 291 – LPL/Spacewatch II MPS 147817
2005 10 23.44754 02 51 00.75 +16 38 44.5 20.3 V 291 – LPL/Spacewatch II MPS 147817
2005 10 24.29123 02 50 16.61 +16 36 27.0 20.1 V 291 – LPL/Spacewatch II MPS 147817
2005 10 24.29863 02 50 16.27 +16 36 26.1 20.0 V 291 – LPL/Spacewatch II MPS 147817
2005 10 24.30596 02 50 15.86 +16 36 24.9 20.2 V 291 – LPL/Spacewatch II MPS 147817
2005 10 27.32980 02 47 32.42 +16 27 46.9 19.8 V G96 – Mt. Lemmon Survey MPS 150850
2005 10 27.33784 02 47 31.95 +16 27 45.4 19.7 V G96 – Mt. Lemmon Survey MPS 150850
2005 10 27.34575 02 47 31.48 +16 27 43.9 19.6 V G96 – Mt. Lemmon Survey MPS 150850
2005 10 27.35389 02 47 31.05 +16 27 42.5 19.5 V G96 – Mt. Lemmon Survey MPS 150850
2005 11 05.22265 02 39 10.08 +15 59 44.0 19.3 V G96 – Mt. Lemmon Survey MPS 149726
2005 11 05.23155 02 39 09.57 +15 59 42.7 19.0 V G96 – Mt. Lemmon Survey MPS 149726
2005 11 05.24031 02 39 09.07 +15 59 40.5 19.1 V G96 – Mt. Lemmon Survey MPS 149726
2005 11 05.24935 02 39 08.53 +15 59 39.0 19.1 V G96 – Mt. Lemmon Survey MPS 149726
2005 11 06.26213 02 38 10.92 +15 56 17.0 19.4   704 – Lincoln Laboratory ETS, New Mexico MPS 149726
2005 11 06.27469 02 38 10.07 +15 56 16.8 20.1   704 – Lincoln Laboratory ETS, New Mexico MPS 149726
2005 11 06.28713 02 38 09.32 +15 56 13.1 20.2   704 – Lincoln Laboratory ETS, New Mexico MPS 149726
2005 11 06.29955 02 38 08.66 +15 56 12.1 19.5   704 – Lincoln Laboratory ETS, New Mexico MPS 149726
2005 11 06.31201 02 38 07.88 +15 56 09.1 19.8   704 – Lincoln Laboratory ETS, New Mexico MPS 149726
2005 11 12.12238 02 32 44.54 +15 37 00.3 20.3 V 691 – Steward Observatory, Kitt Peak-Spacewatch MPS 149726
2005 11 12.14738 02 32 43.14 +15 36 55.4 20.1 V 691 – Steward Observatory, Kitt Peak-Spacewatch MPS 149726
2005 11 12.17244 02 32 41.73 +15 36 50.8 20.2 V 691 – Steward Observatory, Kitt Peak-Spacewatch MPS 149726
2006 01 23.07891 02 28 26.40 +15 57 00.9 21.2 V G96 – Mt. Lemmon Survey MPS 160470
2006 01 23.08469 02 28 26.68 +15 57 02.0 21.1 V G96 – Mt. Lemmon Survey MPS 160470
2006 01 23.09046 02 28 27.01 +15 57 03.9 20.5 V G96 – Mt. Lemmon Survey MPS 160470
2006 01 23.09627 02 28 27.26 +15 57 05.0 20.6 V G96 – Mt. Lemmon Survey MPS 160470
2007 02 23.16633 10 07 17.68 +15 07 09.4 20.9 V 691 – Steward Observatory, Kitt Peak-Spacewatch MPS 201533
2007 02 23.18742 10 07 16.52 +15 07 15.3 20.6 V 691 – Steward Observatory, Kitt Peak-Spacewatch MPS 201533
2007 02 23.21197 10 07 15.15 +15 07 22.0 20.5 V 691 – Steward Observatory, Kitt Peak-Spacewatch MPS 201533
2007 03 13.28611 09 52 25.71 +16 11 55.6 20.7 V G96 – Mt. Lemmon Survey MPS 203096
2007 03 13.29226 09 52 25.42 +16 11 56.6 20.9 V G96 – Mt. Lemmon Survey MPS 203096
2007 03 13.29835 09 52 25.17 +16 11 57.6 20.8 V G96 – Mt. Lemmon Survey MPS 203096
2007 03 13.30448 09 52 24.92 +16 11 58.5 20.8 V G96 – Mt. Lemmon Survey MPS 203096
2009 08 18.35326 00 15 39.17 -01 16 02.1 20.1 V 691 – Steward Observatory, Kitt Peak-Spacewatch MPS 291751
2009 08 18.37090 00 15 38.79 -01 16 04.6 20.2 V 691 – Steward Observatory, Kitt Peak-Spacewatch MPS 291751
2009 08 18.38853 00 15 38.39 -01 16 06.7 20.3 V 691 – Steward Observatory, Kitt Peak-Spacewatch MPS 291751
2009 08 28.40542 00 11 03.07 -01 45 21.7 20.7 V 691 – Steward Observatory, Kitt Peak-Spacewatch MPS 292625
2009 08 28.42302 00 11 02.42 -01 45 25.5 20.1 V 691 – Steward Observatory, Kitt Peak-Spacewatch MPS 292625
2009 08 28.44063 00 11 01.77 -01 45 28.9 20.1 V 691 – Steward Observatory, Kitt Peak-Spacewatch MPS 292625
2009 09 14.97840 23 58 16.22 -02 59 50.0   J95 – Great Shefford MPS 295012
2009 09 14.98362 23 58 15.94 -02 59 51.7 19.4 R J95 – Great Shefford MPS 295012
2009 09 15.25854 23 58 02.15 -03 01 06.9 19.7 V 291 – LPL/Spacewatch II MPS 295012
2009 09 15.26243 23 58 01.94 -03 01 07.9 19.7 V 291 – LPL/Spacewatch II MPS 295012
2009 09 15.26726 23 58 01.69 -03 01 09.4 19.6 V 291 – LPL/Spacewatch II MPS 295012
2009 09 19.25532 23 54 38.52 -03 19 39.9 19.2 V G96 – Mt. Lemmon Survey MPS 295845
2009 09 19.26076 23 54 38.19 -03 19 41.6 19.3 V G96 – Mt. Lemmon Survey MPS 295845
2009 09 19.26637 23 54 37.90 -03 19 42.9 19.3 V G96 – Mt. Lemmon Survey MPS 295845
2009 09 19.27190 23 54 37.62 -03 19 44.6 19.5 V G96 – Mt. Lemmon Survey MPS 295845
2009 09 27.20186 23 47 53.12 -03 54 57.7 19.7 V 703 – Catalina Sky Survey MPS 296934
2009 09 27.21039 23 47 52.62 -03 55 00.6 19.1 V 703 – Catalina Sky Survey MPS 296934
2009 09 27.21896 23 47 52.18 -03 55 01.8 19.7 V 703 – Catalina Sky Survey MPS 296934
2009 09 27.22762 23 47 51.79 -03 55 06.3 19.5 V 703 – Catalina Sky Survey MPS 296934
2009 10 25.19801 23 30 47.19 -05 04 45.2 19.8 V G96 – Mt. Lemmon Survey MPS 300689
2009 10 25.20406 23 30 47.12 -05 04 45.1 20.0 V G96 – Mt. Lemmon Survey MPS 300689
2009 10 25.21020 23 30 46.94 -05 04 45.3 20.4 V G96 – Mt. Lemmon Survey MPS 300689
2009 10 25.21635 23 30 46.80 -05 04 45.1 20.2 V G96 – Mt. Lemmon Survey MPS 300689
2010 11 15.43592 08 23 10.42 +22 08 54.6 21.7 V G96 – Mt. Lemmon Survey MPS 358643
2010 11 15.44175 08 23 10.50 +22 08 54.5 21.2 V G96 – Mt. Lemmon Survey MPS 358643
2010 11 15.44752 08 23 10.60 +22 08 54.6 21.3 V G96 – Mt. Lemmon Survey MPS 358643
2010 11 15.45335 08 23 10.78 +22 08 54.9 21.5 V G96 – Mt. Lemmon Survey MPS 358643
2010 12 06.39990 08 25 25.35 +22 27 52.4 20.6 V G96 – Mt. Lemmon Survey MPS 362525
2010 12 06.41013 08 25 25.17 +22 27 53.6 21.6 V G96 – Mt. Lemmon Survey MPS 362525
2010 12 06.42040 08 25 25.06 +22 27 54.7 21.1 V G96 – Mt. Lemmon Survey MPS 362525
2010 12 06.43071 08 25 24.88 +22 27 55.8 21.1 V G96 – Mt. Lemmon Survey MPS 362525
2011 01 10.23910 08 02 41.42 +24 10 28.6 19.6 V G96 – Mt. Lemmon Survey MPS 366703
2011 01 10.24610 08 02 41.10 +24 10 30.2 20.1 V G96 – Mt. Lemmon Survey MPS 366703
2011 01 10.25306 08 02 40.63 +24 10 31.8 20.2 V G96 – Mt. Lemmon Survey MPS 366703
2011 01 10.26003 08 02 40.27 +24 10 33.0 20.6 V G96 – Mt. Lemmon Survey MPS 366703
2011 01 17.30845 07 55 32.48 +24 31 54.8 19.9 V G96 – Mt. Lemmon Survey MPS 368408
2011 01 17.31790 07 55 31.90 +24 31 56.2 20.2 V G96 – Mt. Lemmon Survey MPS 368408
2011 01 17.32741 07 55 31.29 +24 31 58.2 20.2 V G96 – Mt. Lemmon Survey MPS 368408
